This is the latest recevied weather packets stored in our database for station/object N3FAA. If no packets are shown the sender has not sent any weather packets the latest 10 day(s).
| Time | Temp. | Humidity | Pressure | Rain* | Wind** | Luminosity | Snow |
|---|---|---|---|---|---|---|---|
| 1778210797 | 22.22° C | 49% | 1011.9 hPa | 0 mm | - | 0 W/m² | - |
| 1778210495 | 22.22° C | 49% | 1012 hPa | 0 mm | - | 0 W/m² | - |
| 1778210192 | 22.22° C | 49% | 1011.8 hPa | 0 mm | - | 0 W/m² | - |
| 1778209888 | 22.78° C | 48% | 1011.8 hPa | 0 mm | - | 0 W/m² | - |
| 1778209584 | 22.78° C | 48% | 1011.8 hPa | 0 mm | - | 0 W/m² | - |
| 1778209282 | 22.78° C | 47% | 1011.9 hPa | 0 mm | - | 0 W/m² | - |
| 1778208978 | 22.78° C | 46% | 1011.9 hPa | 0 mm | - | 0 W/m² | - |
| 1778208675 | 23.33° C | 46% | 1011.7 hPa | 0 mm | - | 0 W/m² | - |
| 1778208371 | 23.33° C | 45% | 1011.4 hPa | 0 mm | - | 2 W/m² | - |
| 1778208069 | 23.89° C | 44% | 1011.7 hPa | 0 mm | - | 4 W/m² | - |
| 1778207764 | 23.89° C | 44% | 1011.4 hPa | 0 mm | - | 8 W/m² | - |
| 1778207462 | 23.89° C | 44% | 1011.3 hPa | 0 mm | - | 10 W/m² | - |
| 1778207158 | 23.89° C | 43% | 1011.6 hPa | 0 mm | - | 14 W/m² | - |
| 1778206855 | 24.44° C | 42% | 1011.4 hPa | 0 mm | - | 19 W/m² | - |
| 1778206551 | 25° C | 41% | 1011.5 hPa | 0 mm | - | 24 W/m² | - |
| 1778206247 | 25.56° C | 40% | 1011.4 hPa | 0 mm | - | 29 W/m² | - |
| 1778205944 | 25.56° C | 37% | 1011.6 hPa | 0 mm | - | 34 W/m² | - |
| 1778205642 | 25.56° C | 37% | 1011.3 hPa | 0 mm | - | 39 W/m² | - |
| 1778205340 | 26.11° C | 38% | 1011.4 hPa | 0 mm | - | 44 W/m² | - |
| 1778205036 | 26.67° C | 37% | 1011.5 hPa | 0 mm | - | 60 W/m² | - |
| 1778204733 | 26.67° C | 36% | 1011 hPa | 0 mm | - | 66 W/m² | - |
| 1778204429 | 27.22° C | 33% | 1011 hPa | 0 mm | - | 93 W/m² | - |
| 1778204125 | 27.22° C | 33% | 1011.1 hPa | 0 mm | - | 107 W/m² | - |
| 1778203823 | 27.78° C | 34% | 1011 hPa | 0 mm | - | 125 W/m² | - |
| 1778203520 | 27.78° C | 31% | 1011 hPa | 0 mm | - | 136 W/m² | - |
* Rain latest hour (hover to see other rain measurements)
** Current wind speed in m/s (hover to see current wind gust speed)